Regional Weather Roundup
Issued by NWS

Home | Current Version | Previous Version | Text Only | Print | Product List | Glossary On
Versions: 1 2 3 4 5 6 7 8 9 10 11 12 13 14 15 16 17 18 19 20 21 22 23 24 25 26 27 28 29 30 31 32 33 34 35 36 37 38 39 40 41 42 43 44 45 46 47 48 49 50
979
ASUS43 KMKX 030911
RWRWI

WISCONSIN REGIONAL WEATHER ROUNDUP
NATIONAL WEATHER SERVICE MILWAUKEE/SULLIVAN WI
300 AM CST SAT DEC 03 2016

NOTE: "FAIR" INDICATES FEW OR NO CLOUDS BELOW 12,000 FEET WITH NO
SIGNIFICANT WEATHER AND/OR OBSTRUCTIONS TO VISIBILITY.

WIZ001-002-006>008-014>016-023>028-031000-
NORTHWEST WISCONSIN

CITY           SKY/WX    TMP DP  RH WIND       PRES   REMARKS
SUPERIOR ARPT  CLOUDY    29  24  80 W5        30.29S WCI  24
ASHLAND        NOT AVBL
HAYWARD        CLOUDY    29  23  78 CALM      30.26S
SIREN          CLOUDY    29  24  82 W3        30.28S
CUMBERLAND     CLOUDY    28  23  80 CALM      30.26F
RICE LAKE      CLOUDY    29  25  83 W3        30.29S
CHETEK         CLOUDY    29  24  81 CALM      30.28S
LADYSMITH      CLOUDY    29  26  88 CALM      30.28S
EAU CLAIRE     CLOUDY    30  25  81 W5        30.29R WCI  25
MENOMONIE      CLOUDY    31  25  77 SW6       30.29S WCI  25
NEW RICHMOND   CLOUDY    29  25  84 W3        30.29S
OSCEOLA        CLOUDY    30  25  81 W3        30.32S
$$

WIZ003>005-009-010-017-018-031000-
NORTH CENTRAL WISCONSIN

CITY           SKY/WX    TMP DP  RH WIND       PRES   REMARKS
MANITOWISH WTR CLOUDY    26  26 100 W5        30.23S WCI  20
ARBOR VITAE    CLOUDY    29  27  91 W5        30.23S WCI  24
WOODRUFF       CLOUDY    29  27  91 W5        30.23S WCI  24
RHINELANDER    CLOUDY    28  26  92 W3        30.23S
EAGLE RIVER    FLURRIES  28  28 100 CALM      30.22S
LAND O LAKES   CLOUDY    29  27  92 CALM      30.23S
PHILLIPS       CLOUDY    26  25  97 CALM      30.24F
TOMAHAWK       CLOUDY    26  22  84 W5        30.25S WCI  20
MEDFORD        CLOUDY    27  22  81 NW3       30.25S
MERRILL        CLOUDY    28  23  81 W6        30.26S WCI  21
$$

WIZ029-030-035-036-043>047-031000-
CENTRAL WISCONSIN

CITY           SKY/WX    TMP DP  RH WIND       PRES   REMARKS
WAUSAU         NOT AVBL
MOSINEE        CLOUDY    28  25  86 NW8       30.27S WCI  20
MARSHFIELD     NOT AVBL
STEVENS POINT  CLOUDY    28  22  78 CALM      30.28S
WAUPACA        CLOUDY    33  25  73 W5        30.29S WCI  28
WAUTOMA        CLOUDY    31  25  78 W9        30.30  WCI  23
WISC RAPIDS    NOT AVBL
CAMP DOUGLAS   CLOUDY    30  23  76 W3        30.29S
$$

WIZ011>013-019>022-031-037>040-048>050-031000-
NORTHEAST WISCONSIN

CITY           SKY/WX    TMP DP  RH WIND       PRES   REMARKS
ANTIGO         CLOUDY    28  25  89 W5        30.24S WCI  22
SHAWANO        CLOUDY    34  26  72 CALM      30.28R
OCONTO         CLOUDY    33  28  83 W6        30.27S WCI  27
STURGEON BAY   CLOUDY    35  29  78 NW6       30.26S WCI  30
GREEN BAY      CLOUDY    34  28  79 W6        30.28S WCI  29
MANITOWOC      NOT AVBL
APPLETON       CLOUDY    32  23  69 W8        30.26S WCI  25
CLINTONVILLE   CLOUDY    32  25  74 W6        30.28R WCI  26
OSHKOSH        CLOUDY    31  22  69 W7        30.28S WCI  24
$$

WIZ032>034-041-042-053>061-031000-
SOUTHWEST WISCONSIN

CITY           SKY/WX    TMP DP  RH WIND       PRES   REMARKS
LA CROSSE      CLOUDY    32  21  64 W7        30.33R WCI  26
SPARTA         CLOUDY    31  23  72 W3        30.31S
VIROQUA        CLOUDY    28  22  76 NW5       30.29S WCI  23
BOSCOBEL       CLOUDY    32  21  64 W3        30.34S
PRAIRIE DU CHI CLOUDY    31  22  68 W12       30.35R WCI  22
PLATTEVILLE    CLOUDY    30  25  79 W9        30.34R WCI  22
$$

WIZ056-057-062-063-064-067-068-031000-
SOUTH CENTRAL WISCONSIN

CITY           SKY/WX    TMP DP  RH WIND       PRES   REMARKS
REEDSBURG      CLOUDY    30  23  74 W3        30.30S
BARABOO/DELLS  CLOUDY    30  23  74 CALM      30.30R
LONE ROCK      NOT AVBL
MINERAL POINT  CLOUDY    32  27  80 W6        30.31R WCI  26
MADISON        CLOUDY    30  22  72 NW3       30.31R
MIDDLETON      CLOUDY    32  26  77 NW8       30.31S WCI  25
WATERTOWN      CLOUDY    31  24  77 NW5       30.31R WCI  26
MONROE         CLOUDY    30  23  74 CALM      30.32R
JANESVILLE     CLOUDY    32  27  80 NW5       30.32R WCI  27
$$

WIZ051-052-058>065-066-070>072-031000-
SOUTHEAST WISCONSIN

CITY           SKY/WX    TMP DP  RH WIND       PRES   REMARKS
MILWAUKEE      NOT AVBL
WAUKESHA       CLOUDY    30  21  69 NW8       30.31S WCI  23
MILWAUKEE/TIMM CLOUDY    32  21  64 NW6       30.32R WCI  26
RACINE         CLOUDY    32  23  69 NW3       30.32S
BURLINGTON     CLOUDY    31  23  72 CALM      30.31S
KENOSHA        CLOUDY    32  22  66 NW7       30.31S WCI  26
FOND DU LAC    CLOUDY    31  21  66 NW6       30.29F WCI  25
SHEBOYGAN      CLOUDY    32  24  72 W7        30.29S WCI  26
WEST BEND      CLOUDY    30  25  80 W5        30.30R WCI  25
JUNEAU         CLOUDY    30  22  73 W3        30.31R
$$

LSZ147-162-031000-
LAKE SUPERIOR

STATION/POSITION TIME  TEMP    WIND        PRES    WAVE
                       AIR SEA DIR/SP/G            HT/PER
                 (UTC) (F)     (DEG/KT/KT) (MB)    (FT/S)
DEVILS ISLAND    0900   32     320/  5/  7 1025.6F
PORT WING        0840   31     210/  5/  8 1025.1S
SAXON HARBOR     0840   30     200/  5/  9 1025.1S
$$

LMZ867-665-643>646-031000-
LAKE MICHIGAN

STATION/POSITION TIME  TEMP    WIND        PRES    WAVE
                       AIR SEA DIR/SP/G            HT/PER
                 (UTC) (F)     (DEG/KT/KT) (MB)    (FT/S)
CHAMBERS ISLAND  0840   36     270/  3/  8 1024.0S
NORTHPORT PIER   0840   37     310/  9/ 13 1024.0S
SISTER BAY       0839   36     340/ 14/ 16   N/A
ALGOMA LAKESHORE 0836          290/  3/  5   N/A
KEWAUNEE LAKESHO 0848   33     280/  6/  8 1024.3S
SHEBOYGAN LAKESH 0900   33     260/ 10/ 12 1026.0S
PORT WASHINGTON  0830   32     270/  4/ 10 1027.1S
MILWAUKEE LAKESH 0850   32     310/  6/  8   N/A
S MID LAKE BUOY  0850   36 49  250/  8/ 12 1026.4R   1/ 4
KENOSHA   LAKESH 0900   33     290/  4/  8 1026.4
$$

TC  - TEMPERATURE IN CELSIUS
VSB - VISIBILITY IN STATUTE MILES
WCI - WIND CHILL INDEX
HX  - HEAT INDEX





USA.gov is the U.S. government's official web portal to all federal, state and local government web resources and services.